PWSweather.com
Personal Weather Stations
Station Observations
BETACDT
Kansas City, MT

Kansas City, MT

Lat: 39.287, Lon: -94.447

Elevation: 961

Station Type:

Latest ConditionsUpdated 1:58:22 AM CDT Wednesday, Jun 26, 2019
Currently Today's Max Today's Min Today's Average
Temperature 76.8°F24.9°C 76.8°F24.9°C 76.1°F24.5°C 76.5°F24.7°C
Dew Point 72.6°F22.6°C 72.6°F22.6°C 71.3°F21.8°C 72.1°F22.3°C
Winds 1.0 mph ESE1.6 kmh ESE 3.0 mph -4.8 kmh - - 1.6 mph 2.6 kmh
Wind Gusts 2.0 mph3.2 kmh 4.0 mph6.4 kmh - -
Humidity 87% 87% 85% 86%
Pressure 30.06 in1017.9 mb 30.07 in1018.3 mb 30.04 in1017.3 mb -
Hour Temp Dew Point Humidity Winds Wind Gusts Pressure Precip Precip Rate Daily Precip Total
01:58 AM 76.8°F24.9°C 72.6°F22.6°C 87% 1.0 mph ESE1.6 kmh ESE 2.0 mph3.2 kmh 30.06 in1017.9 mb 0.00 in0.0 mm 0.00 in0.0 mm 0.00 in0.0 mm
01:53 AM 76.8°F24.9°C 72.6°F22.6°C 87% 1.0 mph 1.6 kmh 1.0 mph1.6 kmh 30.06 in1017.9 mb 0.00 in0.0 mm 0.00 in0.0 mm 0.00 in0.0 mm
01:48 AM 76.8°F24.9°C 72.6°F22.6°C 87% 2.0 mph S3.2 kmh S 1.0 mph1.6 kmh 30.06 in1017.9 mb 0.00 in0.0 mm 0.00 in0.0 mm 0.00 in0.0 mm
01:43 AM 76.6°F24.8°C 72.4°F22.4°C 87% 2.0 mph S3.2 kmh S -- 30.06 in1017.9 mb 0.00 in0.0 mm 0.00 in0.0 mm 0.00 in0.0 mm
01:38 AM 76.6°F24.8°C 72.4°F22.4°C 87% 3.0 mph SW4.8 kmh SW 2.0 mph3.2 kmh 30.06 in1017.9 mb 0.00 in0.0 mm 0.00 in0.0 mm 0.00 in0.0 mm
01:33 AM 76.6°F24.8°C 72.4°F22.4°C 87% 2.0 mph SSW3.2 kmh SSW 2.0 mph3.2 kmh 30.06 in1017.9 mb 0.00 in0.0 mm 0.00 in0.0 mm 0.00 in0.0 mm
01:28 AM 76.8°F24.9°C 72.6°F22.6°C 87% 2.0 mph WSW3.2 kmh WSW 3.0 mph4.8 kmh 30.05 in1017.6 mb 0.00 in0.0 mm 0.00 in0.0 mm 0.00 in0.0 mm
01:23 AM 76.8°F24.9°C 72.6°F22.6°C 87% 2.0 mph ESE3.2 kmh ESE 2.0 mph3.2 kmh 30.05 in1017.6 mb 0.00 in0.0 mm 0.00 in0.0 mm 0.00 in0.0 mm
01:18 AM 76.8°F24.9°C 72.6°F22.6°C 87% 2.0 mph NNE3.2 kmh NNE 4.0 mph6.4 kmh 30.05 in1017.6 mb 0.00 in0.0 mm 0.00 in0.0 mm 0.00 in0.0 mm
01:13 AM 76.6°F24.8°C 72.4°F22.4°C 87% 2.0 mph SW3.2 kmh SW 3.0 mph4.8 kmh 30.04 in1017.3 mb 0.00 in0.0 mm 0.00 in0.0 mm 0.00 in0.0 mm
01:08 AM 76.6°F24.8°C 72.4°F22.4°C 87% 2.0 mph NE3.2 kmh NE 3.0 mph4.8 kmh 30.05 in1017.6 mb 0.00 in0.0 mm 0.00 in0.0 mm 0.00 in0.0 mm
01:03 AM 76.5°F24.7°C 72.3°F22.4°C 87% 2.0 mph SW3.2 kmh SW 3.0 mph4.8 kmh 30.05 in1017.6 mb 0.00 in0.0 mm 0.00 in0.0 mm 0.00 in0.0 mm
12:58 AM 76.3°F24.6°C 72.1°F22.3°C 87% 2.0 mph SSE3.2 kmh SSE 2.0 mph3.2 kmh 30.05 in1017.6 mb 0.00 in0.0 mm 0.00 in0.0 mm 0.00 in0.0 mm
12:53 AM 76.3°F24.6°C 72.1°F22.3°C 87% 2.0 mph S3.2 kmh S 2.0 mph3.2 kmh 30.05 in1017.6 mb 0.00 in0.0 mm 0.00 in0.0 mm 0.00 in0.0 mm
12:48 AM 76.3°F24.6°C 72.1°F22.3°C 87% 2.0 mph E3.2 kmh E 2.0 mph3.2 kmh 30.05 in1017.6 mb 0.00 in0.0 mm 0.00 in0.0 mm 0.00 in0.0 mm
12:43 AM 76.3°F24.6°C 72.1°F22.3°C 87% 1.0 mph NNE1.6 kmh NNE 1.0 mph1.6 kmh 30.05 in1017.6 mb 0.00 in0.0 mm 0.00 in0.0 mm 0.00 in0.0 mm
12:38 AM 76.3°F24.6°C 71.8°F22.1°C 86% 1.0 mph ESE1.6 kmh ESE 2.0 mph3.2 kmh 30.04 in1017.3 mb 0.00 in0.0 mm 0.00 in0.0 mm 0.00 in0.0 mm
12:33 AM 76.3°F24.6°C 71.8°F22.1°C 86% 1.0 mph WSW1.6 kmh WSW 2.0 mph3.2 kmh 30.04 in1017.3 mb 0.00 in0.0 mm 0.00 in0.0 mm 0.00 in0.0 mm
12:28 AM 76.3°F24.6°C 71.8°F22.1°C 86% 2.0 mph SW3.2 kmh SW 2.0 mph3.2 kmh 30.04 in1017.3 mb 0.00 in0.0 mm 0.00 in0.0 mm 0.00 in0.0 mm
12:23 AM 76.3°F24.6°C 71.4°F21.9°C 85% 1.0 mph W1.6 kmh W 2.0 mph3.2 kmh 30.05 in1017.6 mb 0.00 in0.0 mm 0.00 in0.0 mm 0.00 in0.0 mm
12:18 AM 76.3°F24.6°C 71.4°F21.9°C 85% 1.0 mph ENE1.6 kmh ENE 2.0 mph3.2 kmh 30.06 in1017.9 mb 0.00 in0.0 mm 0.00 in0.0 mm 0.00 in0.0 mm
12:13 AM 76.3°F24.6°C 71.4°F21.9°C 85% 1.0 mph E1.6 kmh E 2.0 mph3.2 kmh 30.06 in1017.9 mb 0.00 in0.0 mm 0.00 in0.0 mm 0.00 in0.0 mm
12:08 AM 76.1°F24.5°C 71.3°F21.8°C 85% 1.0 mph ESE1.6 kmh ESE 1.0 mph1.6 kmh 30.07 in1018.3 mb 0.00 in0.0 mm 0.00 in0.0 mm 0.00 in0.0 mm
12:03 AM 76.1°F24.5°C 71.3°F21.8°C 85% 1.0 mph ESE1.6 kmh ESE 1.0 mph1.6 kmh 30.07 in1018.3 mb 0.00 in0.0 mm 0.00 in0.0 mm 0.00 in0.0 mm